Location: D�rnast
(49.6426°N, 11.9755°E)
Time: 02:59:49
(UTC+00:00)

Cosmos 1553 Rocket - Pass Details

Date: 24 January 2021
Orbit: 941 x 1008 km, 82.9° (Epoch: 24 February)

Event Time Altitude Azimuth Distance (km) Brightness Sun altitude
Rises 17:37:23 0° 353° (N) 3,752 7.0 -16.5°
Reaches altitude 10° 17:40:03 10° 359° (N) 2,796 6.3 -16.9°
Maximum altitude 17:46:15 48° 73° (ENE) 1,299 4.2 -17.9°
Drops below altitude 10° 17:52:20 10° 147° (SSE) 2,752 6.1 -18.8°
Sets 17:54:56 0° 153° (SSE) 3,688 6.8 -19.3°
